Hourly Data Report for September 13, 2017

All times are specified in Local Standard Time (LST). Add 1 hour to adjust for Daylight Saving Time where and when it is observed.

ARVIAT A
NUNAVUT

61°05'38.000" N
94°04'18.000" W
10.40 m
2300427
71174
YEK

Related Data

No related data is available for this station

Download Data

Hourly Data (September 2017)
Hourly Data Report for September 13, 2017
Temp Definition
°C
Dew Point Temp Definition
°C
Rel Hum Definition
%
Wind Dir Definition
10's deg

Wind Spd Definition
km/h
Visibility Definition
km
Stn Press Definition
kPa
Hmdx Definition


Wind Chill Definition


Weather Definition


TIME
00:00 Legend Double Dagger 3.2 1.7 90 34 18 16.1 100.99     LegendNANA
01:00 Legend Double Dagger 2.7 1.6 93 34 18 16.1 101.04     LegendNANA
02:00 Legend Double Dagger 2.4 1.5 94 34 13 16.1 101.07     LegendNANA
03:00 Legend Double Dagger 2.1 1.3 95 35 15 16.1 101.11     LegendNANA
04:00 Legend Double Dagger 2.3 0.9 91 36 17 16.1 101.15     LegendNANA
05:00 Legend Double Dagger 2.2 1.0 92 36 17 16.1 101.19     LegendNANA
06:00 Legend Double Dagger 1.8 1.1 95 35 13 16.1 101.23     LegendNANA
07:00 Legend Double Dagger 1.1 0.4 95 34 15 16.1 101.28     LegendNANA
08:00 Legend Double Dagger 1.9 1.2 95 35 15 16.1 101.32     LegendNANA
09:00 Legend Double Dagger 2.6 1.7 94 36 17 16.1 101.35     LegendNANA
10:00 Legend Double Dagger 3.7 2.4 91 36 18 16.1 101.34     LegendNANA
11:00 Legend Double Dagger 4.8 2.8 87 3 18 16.1 101.36     LegendNANA
12:00 Legend Double Dagger 5.5 1.9 78 3 18 16.1 101.37     LegendNANA
13:00 Legend Double Dagger 5.7 1.7 75 1 13 16.1 101.41     LegendNANA
14:00 Legend Double Dagger 5.4 0.8 72 4 8 16.1 101.43     LegendNANA
15:00 Legend Double Dagger 5.4 0.7 72 2 8 16.1 101.43     LegendNANA
16:00 Legend Double Dagger 5.6 1.0 72 6 8 16.1 101.45     LegendNANA
17:00 Legend Double Dagger 5.5 0.8 72 5 11 16.1 101.48     LegendNANA
18:00 Legend Double Dagger 5.1 1.1 76 6 9 16.1 101.50     LegendNANA
19:00 Legend Double Dagger 4.6 1.1 78 6 9 16.1 101.52     LegendNANA
20:00 Legend Double Dagger 3.6 1.3 85 8 9 16.1 101.56     LegendNANA
21:00 Legend Double Dagger 3.4 1.1 85 8 11 16.1 101.57     LegendNANA
22:00 Legend Double Dagger 3.1 1.0 86 8 8 16.1 101.56     LegendNANA
23:00 Legend Double Dagger 3.3 0.7 83 11 5 16.1 101.56     LegendNANA

Notes on Data Quality.

Legend

  • E = Estimated
  • M = Missing
  • NA = Not Available
  • ‡ = Partner data that is not subject to review by the National Climate Archives
Date modified: